Tracking 19847 objects as of 16-Sep-2019
HD Live streaming from Space Station
objects crossing your sky now

FENGYUN 1C DEB

Track FENGYUN 1C DEB now!
10-day predictions


NORAD ID: 33748
Int'l Code: 1999-025DJM
Perigee: 798.3 km
Apogee: 859.2 km
Inclination: 98.8 °
Period: 101.3 minutes
Semi major axis: 7199 km
RCS: 0.0021 m2 (small)
Launch date: May 10, 1999
Source: People's Republic of China (PRC)
Launch site: Taiyaun Space Center, China (TSC)

Note: This is SATELLITE DEBRIS
aabbcc
Your satellite tracking list
Your tracking list is empty




NASA's NSSDC Master Catalog

Two Line Element Set (TLE):
1 33748U 99025DJM 19258.31715862  .00000459  00000-0  22959-3 0  9996
2 33748  98.8016 302.0575 0042286  23.2437 337.0640 14.21120174589237
Source of the keplerian elements: AFSPC